Weather History for KNKT - February, 2013

Change the Weather History Date:

Wednesday, February 27, 2013

  Actual Average Record
Temperature  
Mean Temperature 54 °F -  
Max Temperature 61 °F 58 °F 75 °F (1997)
Min Temperature 46 °F 38 °F 23 °F (2006)
Degree Days  
Heating Degree Days 12    
Growing Degree Days 4 (Base 50)    
Moisture  
Dew Point 44 °F    
Average Humidity 71    
Maximum Humidity 93    
Minimum Humidity 49    
Precipitation  
Precipitation 0.01 in - - ()
Sea Level Pressure  
Sea Level Pressure 29.74 in    
Wind  
Wind Speed 10 mph ()    
Max Wind Speed 23 mph    
Max Gust Speed 30 mph    
Visibility 9.8 miles    
Events      
Averages and records for this station are not official NWS values.
T = Trace of Precipitation, MM = Missing Value Source: Averaged Metar Reports

Daily Weather History Graph

Daily Weather History Graph

Search for Another Location

Airport or City:

Trip Planner

Search our weather history database for the weather conditions in past years. The results will help you decide how hot, cold, wet, or windy it might be!

Date:

Astronomy

Feb. 27, 2013 Rise Set
Actual Time 6:39 AM EST 6:01 PM EST
Civil Twilight 6:13 AM EST 6:27 PM EST
Nautical Twilight 5:44 AM EST 6:56 PM EST
Astronomical Twilight 5:15 AM EST 7:25 PM EST
Moon 8:12 PM EST (2/27) 7:19 AM EST (2/27)
Length of Visible Light 12h 13m
Length of Day
11h 22m
Waning Gibbous, 96% of the Moon is Illuminated
Feb 27
Waning Gibbous
Mar 4
Last Quarter
Mar 11
New
Mar 19
First Quarter
Mar 27
Full

Hourly Weather History & Observations

Time (EST) Temp. Windchill Dew Point Humidity Pressure Visibility Wind Dir Wind Speed Gust Speed Precip Events Conditions
12:54 AM 61.0 °F - 57.0 °F 87% 29.63 in 8.0 mi West 9.2 mph - N/A   Clear
1:54 AM 59.0 °F - 57.0 °F 93% 29.64 in 7.0 mi West 8.1 mph - N/A   Scattered Clouds
2:54 AM 57.0 °F - 51.1 °F 81% 29.65 in 10.0 mi West 10.4 mph - N/A   Mostly Cloudy
3:54 AM 55.0 °F - 48.9 °F 80% 29.65 in 10.0 mi West 9.2 mph - N/A   Mostly Cloudy
4:54 AM 53.1 °F - 46.0 °F 77% 29.68 in 10.0 mi West 11.5 mph - 0.01 in   Mostly Cloudy
5:54 AM 51.1 °F - 43.0 °F 74% 29.71 in 10.0 mi WSW 13.8 mph - N/A   Mostly Cloudy
6:54 AM 50.0 °F - 39.9 °F 68% 29.71 in 10.0 mi WSW 17.3 mph 24.2 mph N/A   Mostly Cloudy
7:54 AM 50.0 °F - 39.0 °F 66% 29.75 in 10.0 mi West 17.3 mph 29.9 mph N/A   Mostly Cloudy
8:54 AM 51.1 °F - 39.0 °F 63% 29.78 in 10.0 mi West 23.0 mph 28.8 mph N/A   Mostly Cloudy
9:54 AM 51.1 °F - 39.9 °F 66% 29.80 in 10.0 mi West 17.3 mph 25.3 mph N/A   Mostly Cloudy
10:54 AM 54.0 °F - 39.9 °F 59% 29.81 in 10.0 mi WNW 15.0 mph - N/A   Mostly Cloudy
11:54 AM 55.9 °F - 41.0 °F 57% 29.79 in 10.0 mi WNW 12.7 mph 21.9 mph N/A   Scattered Clouds
12:54 PM 57.9 °F - 41.0 °F 53% 29.77 in 10.0 mi West 10.4 mph - N/A   Scattered Clouds
1:54 PM 59.0 °F - 39.9 °F 49% 29.75 in 10.0 mi WSW 15.0 mph - N/A   Scattered Clouds
2:54 PM 59.0 °F - 39.9 °F 49% 29.76 in 10.0 mi WSW 11.5 mph - N/A   Clear
3:54 PM 57.9 °F - 43.0 °F 58% 29.75 in 10.0 mi SSW 10.4 mph 16.1 mph N/A   Scattered Clouds
4:54 PM 54.0 °F - 43.0 °F 66% 29.76 in 10.0 mi SSW 11.5 mph 17.3 mph N/A   Scattered Clouds
5:54 PM 52.0 °F - 43.0 °F 71% 29.76 in 10.0 mi SSW 8.1 mph - N/A   Clear
6:54 PM 51.1 °F - 43.0 °F 74% 29.77 in 10.0 mi SSW 8.1 mph - N/A   Clear
7:54 PM 50.0 °F - 43.0 °F 77% 29.76 in 10.0 mi SSW 6.9 mph - N/A   Mostly Cloudy
8:54 PM 48.9 °F - 43.0 °F 80% 29.77 in 10.0 mi SW 6.9 mph - N/A   Mostly Cloudy
9:54 PM 48.0 °F - 42.1 °F 80% 29.77 in 10.0 mi SW 8.1 mph - N/A   Mostly Cloudy
10:54 PM 46.0 °F 43.1 °F 41.0 °F 83% 29.76 in 10.0 mi SW 5.8 mph - N/A   Scattered Clouds
11:54 PM 46.0 °F 42.5 °F 41.0 °F 83% 29.75 in 10.0 mi SW 6.9 mph - N/A   Clear